Terug naar catalogus

COSMOS 2251 DEB

ActiefLEO
NORAD 34028·DEBRIS·🇷🇺 Russia

Gelanceerd Jun 16, 1993 vanaf Plesetsk Cosmodrome

Loading…

Volgende Passages (komende 24 uur)

TLE

VersSource: Space-Track

Epoch: Sep 14, 2026, 01:46 UTC

1 34028U 93036HP  26257.07400361  .00000243  00000-0  29538-3 0  9990
2 34028  73.8800 284.9927 0545129  16.3815  12.5928 13.20820597846435

Volg COSMOS 2251 DEB in realtime met AllMySat

Download on the App Store